Wind_Speed
24 21 18 19 18 16 14 13 13 12 13 13 12 13 13 16 17 14 6 7 0 5 5 3 2 1 0 3 3 3 4 2 4 4 2 3 2 1 0 2 1 2 2 1 13
26 23 21 20 20 18 15 15 14 12 13 13 12 13 12 15 19 12 17 9 6 6 7 5 2 1 2 1 2 4 3 6 4 2 2 1 1 2 2 1 2 2 1 6 18
28 26 23 21 21 19 18 16 15 13 14 12 12 12 11 13 5 6 2 14 9 8 4 4 2 2 2 1 1 3 4 4 3 3 3 2 2 3 2 4 7 7 5 7 9
28 27 25 23 22 20 19 17 16 14 14 12 11 11 10 4 5 1 8 7 13 9 6 3 2 3 2 2 1 1 3 5 2 3 3 2 0 2 6 7 2 7 6 6 7
29 28 26 25 23 20 19 17 16 14 13 12 10 9 4 2 9 9 11 5 14 11 7 4 2 4 2 2 3 1 2 3 4 3 5 1 6 6 6 7 2 5 6 7 7
27 27 26 25 23 20 20 17 15 14 12 11 8 5 1 4 6 7 3 8 8 10 7 6 5 5 3 2 4 3 2 3 5 5 4 6 3 4 4 6 6 6 6 6 5
26 26 27 24 22 21 18 16 14 12 11 9 6 2 1 12 4 1 1 2 5 7 3 6 5 4 5 1 1 2 4 6 5 2 6 6 7 9 4 5 8 7 6 5 4
20 26 27 25 22 20 17 14 13 11 10 6 4 1 7 9 8 20 15 10 5 8 6 3 5 4 2 4 6 4 4 4 3 4 1 5 8 6 3 8 10 8 6 6 4
16 18 29 27 23 19 16 12 11 9 8 4 2 2 9 7 7 17 17 5 5 7 4 5 3 2 4 5 4 6 3 3 7 3 2 3 6 2 2 6 8 8 7 6 5
21 15 21 30 26 20 14 11 7 6 6 3 1 2 6 4 5 8 15 11 3 5 3 3 5 3 3 3 5 4 3 4 5 3 2 3 10 10 5 7 10 8 8 7 7
25 23 13 34 30 22 18 8 3 2 6 9 7 6 3 3 2 4 9 11 4 4 6 1 4 6 10 7 5 4 3 6 5 5 3 7 9 12 7 6 9 10 9 9 8
26 25 24 17 35 29 26 5 7 2 5 18 5 8 10 2 2 3 12 6 5 6 6 3 7 9 5 4 4 3 3 6 6 3 4 7 11 11 7 8 12 15 11 11 6
25 29 28 23 33 36 32 30 2 3 3 4 16 6 5 8 5 7 10 6 5 6 7 8 4 8 7 4 5 4 4 4 7 4 2 6 8 5 5 5 6 8 7 8 12
26 30 30 25 24 31 26 37 12 8 3 6 7 9 6 7 5 9 13 7 3 12 8 6 5 5 5 5 7 5 6 6 4 1 3 2 5 7 7 9 6 8 9 10 10
29 29 31 26 17 19 17 26 22 4 4 8 7 5 8 11 7 5 10 4 9 7 7 8 7 6 4 7 7 8 5 4 1 2 2 2 1 7 2 8 10 8 10 9 12
29 28 26 29 24 29 28 34 10 4 10 5 7 8 7 5 5 4 4 4 5 6 1 8 3 7 9 4 8 5 5 5 4 2 2 6 6 5 4 5 5 3 6 9 10
28 26 27 21 6 37 43 17 5 7 2 7 7 7 7 7 6 7 8 7 8 6 5 2 3 2 4 5 2 4 5 2 3 1 6 1 2 9 6 6 6 6 8 10 11
28 26 28 27 29 24 42 14 6 13 9 3 6 10 8 7 6 6 9 9 5 6 5 7 4 8 4 7 7 6 7 5 6 3 4 2 5 6 6 3 5 7 5 8 9
24 23 23 30 34 26 19 12 14 8 16 9 7 6 5 6 7 5 8 14 12 8 8 6 6 1 4 4 9 5 4 5 4 0 1 4 8 10 4 5 2 2 5 9 11
13 13 27 31 27 26 15 14 9 7 19 9 8 6 8 10 7 9 9 7 7 8 7 7 2 2 4 4 3 8 7 2 2 3 4 5 5 7 5 4 1 3 7 7 7
13 5 9 25 32 12 14 13 8 5 11 8 7 6 7 9 9 8 10 2 13 12 8 6 4 1 4 5 9 3 3 3 4 4 5 2 6 6 4 5 6 6 7 8 9
5 6 8 29 10 11 10 12 8 7 5 3 6 5 8 10 6 7 11 9 10 14 14 7 5 5 8 1 3 4 7 7 4 5 3 3 6 3 5 7 4 6 6 7 8
3 3 12 35 10 14 8 10 6 15 8 7 5 4 4 8 5 6 7 6 9 9 12 8 4 3 1 3 2 4 4 4 4 3 6 5 5 3 4 5 3 5 5 4 7
3 4 4 10 10 22 15 22 16 8 7 5 6 5 6 4 2 9 8 4 8 9 10 12 5 10 11 6 6 4 6 9 8 4 8 7 8 6 5 5 5 6 6 6 6
3 3 2 4 7 23 22 26 24 9 6 7 2 8 9 6 4 5 4 4 2 5 6 7 7 7 10 6 6 7 6 12 10 16 8 15 11 18 14 8 8 8 6 6 6
2 4 4 3 11 22 25 25 29 13 17 13 9 9 6 9 8 9 9 5 6 3 7 2 4 7 6 8 8 5 8 8 10 4 8 13 10 8 6 4 6 10 7 8 8
6 5 2 6 9 18 21 27 32 12 0 12 12 7 6 9 8 6 7 8 10 10 7 8 6 4 7 6 6 7 8 8 6 5 7 7 18 3 5 8 7 8 7 9 7
Wind_Direction
263 274 268 269 266 270 273 282 291 295 300 304 310 315 317 314 311 310 255 243 24 227 180 173 182 292 51 83 82 124 65 160 196 163 251 355 121 33 8 139 69 296 185 252 155
255 262 264 267 268 269 271 279 285 294 294 300 308 313 318 319 316 281 261 245 239 210 191 177 166 60 46 69 40 85 110 215 210 192 220 179 136 190 181 69 275 309 56 148 158
255 260 262 266 266 267 271 274 283 287 288 294 301 311 317 324 303 250 305 226 216 201 195 186 136 123 94 31 81 157 175 203 257 227 189 198 238 195 151 247 222 208 184 154 162
254 258 262 264 264 260 263 270 278 281 283 289 295 309 317 330 257 333 343 233 197 186 170 155 90 90 105 166 144 94 215 175 233 228 145 222 245 254 184 231 244 222 177 169 171
256 256 259 263 262 259 259 266 270 276 279 285 290 309 334 300 255 302 330 200 185 183 188 169 141 128 173 173 87 160 252 191 256 196 240 124 230 230 244 237 114 133 165 184 193
259 251 255 257 257 255 258 261 264 268 270 278 288 309 127 245 272 287 307 167 193 182 187 172 193 179 134 167 149 214 237 270 275 246 231 198 242 162 246 157 153 167 180 187 205
260 257 251 250 254 250 252 256 261 265 265 270 287 295 210 236 234 166 130 157 209 201 165 215 177 128 128 137 1 61 316 325 245 228 235 157 288 231 179 164 180 191 196 202 227
259 256 250 243 248 245 242 246 254 259 262 266 267 200 246 257 256 250 266 267 256 216 224 242 183 104 93 119 27 41 53 343 280 163 315 148 268 273 208 167 203 204 208 212 228
314 261 251 241 239 241 236 239 251 254 254 235 221 190 264 282 242 237 232 216 199 204 222 136 106 106 63 98 17 21 254 253 310 215 141 165 264 248 103 189 212 211 216 222 234
302 309 250 240 230 229 224 229 238 241 219 177 252 6 268 233 196 207 209 202 160 129 86 74 60 98 42 109 211 210 236 256 252 276 234 226 263 275 222 193 223 216 229 232 228
286 289 297 236 224 212 191 153 69 284 221 192 195 204 285 250 246 186 160 138 105 95 165 87 132 195 197 188 186 167 202 247 257 254 236 245 254 260 253 216 228 219 211 225 220
287 292 301 323 218 205 192 179 204 173 252 237 263 281 266 344 184 207 162 135 147 182 116 61 216 219 180 157 163 169 214 263 277 267 184 284 270 261 240 228 212 210 205 208 193
281 279 291 260 222 192 186 196 197 179 247 252 212 205 220 171 229 217 149 142 149 151 186 179 224 159 157 152 170 206 190 242 242 322 265 325 284 279 281 252 239 219 194 187 188
278 283 276 300 220 182 190 200 206 15 268 262 199 240 184 153 240 200 173 142 174 186 164 218 220 155 166 188 154 232 212 224 245 325 247 65 286 297 266 276 249 228 195 186 175
276 283 272 274 286 181 180 186 204 326 221 224 196 159 167 168 151 230 171 80 161 166 136 224 182 176 167 199 158 232 158 189 272 224 353 276 277 265 322 288 277 232 210 192 181
274 272 277 272 255 178 172 166 142 105 233 231 144 161 128 175 184 107 138 84 148 133 175 196 197 162 203 185 178 138 87 54 58 93 295 239 179 278 233 218 278 287 211 187 177
271 269 262 255 285 169 151 124 126 199 153 192 176 162 150 160 182 160 156 167 165 149 162 161 201 195 134 102 81 116 103 287 315 321 234 136 151 244 264 255 238 265 207 187 177
264 265 252 247 265 185 144 145 170 207 216 127 136 122 166 135 204 170 141 181 244 126 141 166 225 173 195 169 178 182 162 165 227 214 273 90 239 251 229 249 274 263 215 164 167
255 263 242 248 253 257 150 169 199 164 184 146 84 129 170 194 144 139 184 206 189 172 159 161 232 213 177 154 151 189 171 191 107 39 50 239 287 298 261 284 345 101 148 180 179
233 242 247 225 263 194 162 187 206 190 161 155 150 157 166 176 142 158 169 191 189 177 147 202 145 197 158 116 50 159 166 113 14 215 247 279 269 241 294 294 312 225 211 199 180
224 238 202 216 185 183 197 189 196 231 159 145 158 147 165 170 159 184 198 248 182 188 151 141 114 272 104 197 178 142 177 64 135 148 196 246 260 222 254 280 244 240 218 198 193
165 237 231 180 170 191 198 179 174 187 218 139 123 117 154 160 143 178 194 211 177 157 185 178 152 165 200 246 198 170 174 149 149 226 231 161 273 259 233 251 246 263 223 212 199
176 238 231 186 175 188 175 215 202 183 183 173 151 146 166 151 144 178 186 220 153 151 163 172 198 126 51 357 343 186 196 161 126 92 193 173 262 315 278 286 266 262 280 227 199
140 224 196 206 209 178 177 193 197 192 168 180 134 114 116 133 47 181 170 176 174 175 168 153 152 194 210 213 150 187 198 197 183 151 232 215 257 274 275 284 296 281 269 257 211
188 228 125 194 221 189 179 177 186 179 192 167 102 174 142 125 106 144 138 116 138 174 141 143 188 188 218 197 179 188 196 196 191 225 207 249 227 247 256 255 254 264 253 225 231
241 189 179 242 219 192 186 183 186 187 173 192 146 168 142 146 179 182 137 166 172 168 154 188 203 165 230 211 206 208 219 183 225 246 245 250 274 247 232 225 252 246 250 255 247
247 285 296 319 205 186 192 183 196 146 301 180 141 121 149 186 163 162 161 151 156 146 167 149 136 125 239 188 185 244 206 192 193 197 192 211 242 203 242 225 241 256 229 244 255
Height
813 814 813 813 813 812 811 812 812 810 809 808 806 805 803 802 798 795 794 791 790 791 792 792 792 793 793 794 796 800 826 833 820 819 810 804 805 802 802 804 804 804 804 803 803
811 811 811 811 810 810 809 811 810 807 808 807 805 804 802 801 797 790 787 788 789 790 791 792 793 793 798 797 800 810 829 821 810 806 808 805 804 805 806 806 806 805 803 803 804
805 807 807 807 807 806 808 809 808 806 808 805 804 803 802 801 798 784 782 785 788 789 791 791 792 794 799 798 802 810 820 811 805 803 803 805 804 802 805 811 806 806 803 804 805
800 801 803 804 804 805 807 807 807 805 806 805 803 802 801 801 807 783 781 783 786 788 791 791 792 798 804 804 802 808 805 807 802 800 803 805 801 804 806 802 797 799 800 803 805
794 796 798 799 801 802 803 805 804 804 805 804 803 801 800 803 795 784 781 781 785 787 789 791 794 798 805 803 804 808 804 805 800 801 803 802 805 806 803 797 797 799 801 803 804
788 790 794 796 797 799 801 803 803 804 804 804 801 799 800 807 785 783 782 782 785 786 788 789 792 793 800 802 807 804 803 804 803 802 802 805 804 803 796 796 799 800 802 802 803
783 784 788 791 792 795 799 800 801 802 802 802 800 799 799 792 782 782 783 783 784 786 787 788 788 791 796 803 801 803 810 810 805 802 804 802 808 804 793 797 799 801 803 803 802
778 780 781 785 790 793 795 798 799 800 800 799 799 799 795 782 779 780 782 782 783 785 787 786 788 790 793 799 808 813 818 825 804 804 800 801 816 793 792 797 800 802 803 802 801
774 774 777 781 784 788 791 793 796 797 797 797 798 799 792 777 775 775 779 780 781 784 786 786 788 796 799 813 823 827 831 825 815 803 802 805 807 791 794 797 799 801 802 801 799
772 770 771 775 779 784 789 791 793 796 796 797 797 801 780 774 771 772 774 778 781 783 787 790 799 809 812 815 833 826 826 821 821 806 804 807 809 794 792 795 795 800 802 801 799
768 767 766 768 773 778 785 790 796 796 791 783 781 777 772 770 771 771 772 776 781 786 800 795 808 817 806 804 807 812 818 823 815 804 806 810 806 795 788 794 795 796 798 799 797
763 763 762 763 764 771 776 780 778 779 783 776 778 776 771 770 772 770 771 780 786 798 797 806 812 798 797 804 808 813 818 822 812 804 807 807 804 790 785 783 778 781 790 792 794
758 758 756 756 753 760 763 769 776 775 780 770 768 772 768 771 773 771 769 777 785 798 801 806 796 794 799 806 811 814 818 816 816 809 806 811 806 787 776 777 772 774 776 782 786
755 754 753 755 752 746 752 764 773 775 781 771 767 761 764 766 771 762 764 772 784 793 800 799 789 793 801 804 807 818 805 806 809 815 823 807 824 794 776 776 772 773 776 777 782
748 747 748 755 744 733 747 759 772 776 798 758 754 745 748 759 761 761 759 767 783 786 793 796 792 796 799 798 799 806 798 805 805 816 818 815 825 795 778 773 765 766 773 773 776
742 743 745 744 736 730 742 753 772 790 781 747 745 749 755 754 757 758 761 762 769 781 783 786 782 786 788 788 792 796 803 813 824 828 833 812 817 803 778 766 760 761 768 771 774
734 736 739 741 731 724 737 748 778 773 738 745 745 745 748 756 760 759 766 773 779 794 797 787 785 779 779 792 792 798 811 831 831 833 829 812 819 797 762 758 759 754 761 767 771
728 731 729 730 730 727 719 745 753 733 740 727 734 742 748 750 757 759 767 773 774 775 796 799 802 786 779 784 795 804 806 827 825 830 822 814 812 778 757 751 755 754 754 763 768
721 721 718 716 724 727 716 723 719 713 716 726 733 745 750 746 750 756 765 760 763 767 779 797 795 777 776 776 780 802 808 801 818 824 827 811 793 766 754 754 753 756 760 763 765
715 715 706 711 715 717 711 709 705 695 701 712 726 734 746 748 750 755 766 753 758 758 757 775 786 777 775 776 781 786 790 807 821 816 819 810 800 781 756 750 751 757 760 763 765
711 707 692 701 707 711 690 696 703 695 695 704 718 731 732 739 744 749 752 745 743 755 755 768 775 785 777 783 785 791 795 801 804 814 812 813 798 764 755 752 752 753 757 759 762
705 699 685 692 693 701 697 684 684 693 696 697 704 713 724 732 742 746 746 738 735 740 754 758 774 792 782 771 771 774 783 790 807 807 820 817 798 753 753 755 750 748 750 752 755
695 694 683 685 682 694 692 686 677 686 693 698 699 698 712 724 735 736 738 731 735 740 751 756 773 785 780 781 777 776 779 780 788 798 809 808 793 752 754 750 748 748 746 749 752
696 686 675 675 671 672 684 682 681 681 686 689 690 698 708 716 718 732 737 732 734 735 737 741 765 760 769 765 767 777 774 773 775 802 784 797 775 755 751 749 749 747 746 745 748
688 682 680 670 672 667 666 668 674 680 679 683 689 690 696 719 721 727 731 733 734 733 740 744 760 762 754 753 759 760 763 766 776 768 780 762 769 750 747 749 746 744 744 745 746
685 680 674 674 668 668 665 663 661 670 671 676 682 689 690 705 705 719 722 727 731 737 744 747 753 757 759 756 758 758 758 765 766 763 769 763 762 740 742 744 746 744 742 741 740
681 672 665 662 658 662 657 654 653 662 666 665 674 684 691 692 694 697 701 709 716 729 742 746 753 761 762 752 759 765 756 756 756 755 752 766 739 733 738 742 740 737 739 738 737